Weather History for Hailey, ID

Change the Weather History Date:

Saturday, August 10, 2013

  Actual Average Record
Temperature  
Mean Temperature 72 °F -  
Max Temperature 86 °F 83 °F 98 °F (2000)
Min Temperature 57 °F 52 °F 48 °F (1996)
Cooling Degree Days 6    
Growing Degree Days 22 (Base 50)    
Moisture  
Dew Point 35 °F    
Average Humidity 31    
Maximum Humidity 44    
Minimum Humidity 15    
Precipitation  
Precipitation 0.00 in - - ()
Sea Level Pressure  
Sea Level Pressure 30.09 in    
Wind  
Wind Speed 6 mph (NW)    
Max Wind Speed 16 mph    
Max Gust Speed 24 mph    
Visibility 10 miles    
Events      
Averages and records for this station are not official NWS values.
T = Trace of Precipitation, MM = Missing Value Source: NWS Daily Summary

Daily Weather History Graph

Daily Weather History Graph

Search for Another Location

Airport:

Trip Planner

Search our weather history database for the weather conditions in past years. The results will help you decide how hot, cold, wet, or windy it might be!

Date:

Astronomy

Aug. 10, 2013 Rise Set
Actual Time 6:36 AM MDT 8:47 PM MDT
Civil Twilight 6:05 AM MDT 9:18 PM MDT
Nautical Twilight 5:26 AM MDT 9:57 PM MDT
Astronomical Twilight 4:43 AM MDT 10:40 PM MDT
Moon 10:36 AM MDT (8/10) 10:21 PM MDT (8/10)
Length of Visible Light 15h 13m
Length of Day
14h 10m
Waxing Crescent, 14% of the Moon is Illuminated
Aug 10
Waxing Crescent
Aug 14
First Quarter
Aug 20
Full
Aug 28
Last Quarter
Sep 5
New

Hourly Weather History & Observations

Time (MDT) Temp. Dew Point Humidity Pressure Visibility Wind Dir Wind Speed Gust Speed Precip Events Conditions
12:15 AM 64.4 °F 35.6 °F 34% 30.07 in 10.0 mi Calm Calm - N/A   Clear
12:35 AM 64.4 °F 35.6 °F 34% 30.08 in 10.0 mi WNW 4.6 mph - N/A   Clear
12:55 AM 64.4 °F 33.8 °F 32% 30.08 in 10.0 mi NNW 8.1 mph - N/A   Clear
1:15 AM 64.4 °F 32.0 °F 30% 30.08 in 10.0 mi NW 6.9 mph - N/A   Clear
1:35 AM 66.2 °F 32.0 °F 28% 30.07 in 10.0 mi NNE 16.1 mph 24.2 mph N/A   Scattered Clouds
1:55 AM 71.6 °F 33.8 °F 25% 30.07 in 10.0 mi WNW 6.9 mph - N/A   Mostly Cloudy
2:15 AM 68.0 °F 33.8 °F 28% 30.07 in 10.0 mi Calm Calm - N/A   Clear
2:35 AM 64.4 °F 35.6 °F 34% 30.07 in 10.0 mi NW 6.9 mph - N/A   Clear
2:55 AM 64.4 °F 33.8 °F 32% 30.08 in 10.0 mi NNW 6.9 mph - N/A   Clear
3:15 AM 64.4 °F 33.8 °F 32% 30.08 in 10.0 mi WNW 6.9 mph - N/A   Clear
3:35 AM 62.6 °F 33.8 °F 34% 30.09 in 10.0 mi NW 4.6 mph - N/A   Clear
3:55 AM 64.4 °F 33.8 °F 32% 30.09 in 10.0 mi NW 9.2 mph - N/A   Clear
4:15 AM 62.6 °F 33.8 °F 34% 30.09 in 10.0 mi NW 5.8 mph - N/A   Scattered Clouds
4:35 AM 62.6 °F 33.8 °F 34% 30.09 in 10.0 mi North 5.8 mph - N/A   Scattered Clouds
4:55 AM 60.8 °F 33.8 °F 36% 30.09 in 10.0 mi NW 9.2 mph - N/A   Clear
5:15 AM 60.8 °F 33.8 °F 36% 30.09 in 10.0 mi WNW 6.9 mph - N/A   Clear
5:35 AM 60.8 °F 33.8 °F 36% 30.09 in 10.0 mi NW 6.9 mph - N/A   Clear
5:55 AM 59.0 °F 33.8 °F 39% 30.09 in 10.0 mi NNW 5.8 mph - N/A   Clear
6:15 AM 59.0 °F 33.8 °F 39% 30.10 in 10.0 mi NW 10.4 mph - N/A   Clear
6:35 AM 59.0 °F 33.8 °F 39% 30.11 in 10.0 mi NW 6.9 mph - N/A   Clear
6:47 AM 57.2 °F 35.6 °F 44% 30.12 in 10.0 mi WNW 6.9 mph - N/A   Partly Cloudy
6:55 AM 57.2 °F 33.8 °F 41% 30.12 in 10.0 mi NW 6.9 mph - N/A   Clear
7:47 AM 57.2 °F 33.8 °F 41% 30.14 in 10.0 mi WNW 9.2 mph - N/A   Partly Cloudy
8:50 AM 62.6 °F 35.6 °F 37% 30.15 in 10.0 mi NW 8.1 mph - N/A   Partly Cloudy
9:51 AM 69.8 °F 37.4 °F 31% 30.16 in 10.0 mi NW 3.5 mph - N/A   Clear
10:55 AM 77.0 °F 44.6 °F 32% 30.15 in 10.0 mi SSE 10.4 mph - N/A   Clear
11:55 AM 78.8 °F 42.8 °F 28% 30.15 in 10.0 mi SE 8.1 mph - N/A   Partly Cloudy
12:47 PM 82.4 °F 33.8 °F 17% 30.14 in 10.0 mi East 10.4 mph - N/A   Partly Cloudy
1:47 PM 84.2 °F 33.8 °F 16% 30.13 in 10.0 mi ENE 9.2 mph 16.1 mph N/A   Partly Cloudy
2:47 PM 84.2 °F 33.8 °F 16% 30.12 in 10.0 mi SSE 6.9 mph - N/A   Scattered Clouds
3:47 PM 84.2 °F 33.8 °F 16% 30.10 in 10.0 mi SSW 8.1 mph - N/A   Scattered Clouds
4:55 PM 86.0 °F 33.8 °F 15% 30.07 in 10.0 mi ENE 6.9 mph - N/A   Scattered Clouds
5:47 PM 84.2 °F 35.6 °F 18% 30.06 in 10.0 mi SE 10.4 mph - N/A   Scattered Clouds
6:47 PM 84.2 °F 32.0 °F 15% 30.05 in 10.0 mi ESE 6.9 mph - N/A   Scattered Clouds
7:47 PM 78.8 °F 46.4 °F 32% 30.04 in 10.0 mi SE 5.8 mph - N/A   Partly Cloudy
8:55 PM 69.8 °F 39.2 °F 33% 30.05 in 10.0 mi Calm Calm - N/A   Partly Cloudy
9:47 PM 71.6 °F 35.6 °F 27% 30.07 in 10.0 mi NW 11.5 mph - N/A   Clear
10:47 PM 64.4 °F 33.8 °F 32% 30.08 in 10.0 mi NW 9.2 mph - N/A   Clear
11:15 PM 64.4 °F 32.0 °F 30% 30.09 in 10.0 mi NW 8.1 mph - N/A   Clear
11:35 PM 64.4 °F 32.0 °F 30% 30.09 in 10.0 mi NW 6.9 mph - N/A   Clear
11:55 PM 62.6 °F 32.0 °F 32% 30.09 in 10.0 mi NW 6.9 mph - N/A   Clear